TimeEDT,TemperatureF,Dew PointF,Humidity,Sea Level PressureIn,VisibilityMPH,Wind Direction,Wind SpeedMPH,Gust SpeedMPH,PrecipitationIn,Events,Conditions,WindDirDegrees,DateUTC
12:51 AM,39.9,30.9,70,30.27,10.0,WNW,4.6,-,N/A,,Partly Cloudy,300,2013-05-26 04:51:00
1:51 AM,39.0,32.0,76,30.27,10.0,WNW,4.6,-,N/A,,Partly Cloudy,300,2013-05-26 05:51:00
2:51 AM,37.9,32.0,79,30.27,10.0,West,3.5,-,N/A,,Partly Cloudy,270,2013-05-26 06:51:00
3:51 AM,35.1,30.9,85,30.26,10.0,Calm,Calm,-,N/A,,Partly Cloudy,0,2013-05-26 07:51:00
4:51 AM,34.0,30.9,89,30.27,10.0,Calm,Calm,-,N/A,,Clear,0,2013-05-26 08:51:00
5:51 AM,34.0,32.0,92,30.29,10.0,West,3.5,-,N/A,,Partly Cloudy,280,2013-05-26 09:51:00
6:51 AM,37.0,34.0,89,30.30,10.0,Calm,Calm,-,N/A,,Clear,0,2013-05-26 10:51:00
7:51 AM,43.0,37.9,82,30.32,10.0,NW,4.6,-,N/A,,Clear,310,2013-05-26 11:51:00
8:51 AM,48.9,39.0,69,30.31,10.0,NW,6.9,-,N/A,,Clear,320,2013-05-26 12:51:00
9:51 AM,53.1,37.0,55,30.31,10.0,Variable,5.8,-,N/A,,Partly Cloudy,0,2013-05-26 13:51:00
10:51 AM,57.0,35.1,44,30.31,10.0,NW,13.8,-,N/A,,Scattered Clouds,320,2013-05-26 14:51:00
11:51 AM,60.1,33.1,36,30.31,10.0,NW,10.4,24.2,N/A,,Scattered Clouds,320,2013-05-26 15:51:00
12:51 PM,61.0,32.0,34,30.30,10.0,North,11.5,19.6,N/A,,Scattered Clouds,350,2013-05-26 16:51:00
1:51 PM,62.1,32.0,32,30.29,10.0,NW,12.7,-,N/A,,Scattered Clouds,320,2013-05-26 17:51:00
2:51 PM,63.0,30.0,29,30.29,10.0,North,13.8,21.9,N/A,,Scattered Clouds,350,2013-05-26 18:51:00
3:51 PM,64.0,30.0,28,30.28,10.0,NNW,12.7,-,N/A,,Scattered Clouds,330,2013-05-26 19:51:00
4:51 PM,63.0,28.9,28,30.28,10.0,North,9.2,-,N/A,,Scattered Clouds,350,2013-05-26 20:51:00
5:51 PM,63.0,28.9,28,30.27,10.0,NNW,12.7,18.4,N/A,,Mostly Cloudy,330,2013-05-26 21:51:00
6:51 PM,61.0,28.9,30,30.26,10.0,NNW,9.2,-,N/A,,Mostly Cloudy,330,2013-05-26 22:51:00
7:51 PM,57.9,28.9,33,30.25,10.0,NNW,9.2,-,N/A,,Mostly Cloudy,330,2013-05-26 23:51:00
8:51 PM,51.1,34.0,52,30.25,10.0,Calm,Calm,-,N/A,,Scattered Clouds,0,2013-05-27 00:51:00
9:51 PM,48.0,35.1,61,30.27,10.0,Calm,Calm,-,N/A,,Mostly Cloudy,0,2013-05-27 01:51:00
10:51 PM,46.0,36.0,68,30.27,10.0,Calm,Calm,-,N/A,,Mostly Cloudy,0,2013-05-27 02:51:00
11:51 PM,46.0,36.0,68,30.27,10.0,Calm,Calm,-,N/A,,Mostly Cloudy,0,2013-05-27 03:51:00